Location: Heilbronn
(49.1548°N, 9.2780°E)
Time: 05:01:53
(UTC+01:00)

Tiangong 1 - Visible Passes

Search period start: 25 November 2017 00:00
Search period end: 05 December 2017 00:00
Orbit: 283 x 307 km, 42.8° (Epoch: 24 November)

Date Brightness Start Highest point End Pass type
(mag) Time Alt. Az. Time Alt. Az. Time Alt. Az.
27 Nov 3.3 18:00:55 10° S 18:01:42 11° SSE 18:02:12 10° SSE visible
28 Nov 2.9 18:05:55 10° SSW 18:07:30 15° SSE 18:07:57 14° SSE visible
29 Nov 2.7 18:11:20 10° SW 18:13:13 18° S 18:13:34 17° SSE visible
30 Nov 2.6 18:16:49 10° SW 18:18:49 20° S 18:19:03 19° S visible
01 Dec 2.7 18:22:18 10° SW 18:24:16 19° S 18:24:26 19° S visible
02 Dec 3.0 18:27:48 10° SW 18:29:35 17° S 18:29:44 17° S visible
03 Dec 3.4 18:33:22 10° SW 18:34:44 13° SSW 18:35:00 13° S visible
04 Dec 3.1 17:03:42 10° SW 17:05:39 19° S 17:07:35 10° SE visible
